This is the latest recevied weather packets stored in our database for station/object MB7UKB-10. If no packets are shown the sender has not sent any weather packets the latest 10 day(s).
| Time | Temp. | Humidity | Pressure | Rain* | Wind** | Luminosity | Snow |
|---|---|---|---|---|---|---|---|
| 1777830143 | 17.78° C | 61% | 1008.8 hPa | 0 mm | - | - | - |
| 1777828343 | 17.78° C | 62% | 1009 hPa | 0 mm | - | - | - |
| 1777826544 | 18.33° C | 58% | 1008.8 hPa | 0 mm | - | - | - |
| 1777824744 | 17.78° C | 61% | 1008.8 hPa | 0 mm | - | - | - |
| 1777822944 | 18.33° C | 59% | 1009 hPa | 0 mm | - | - | - |
| 1777821144 | 18.33° C | 58% | 1009.2 hPa | 0 mm | - | - | - |
| 1777819344 | 20° C | 55% | 1009 hPa | 0 mm | - | - | - |
| 1777817544 | 18.89° C | 57% | 1009.3 hPa | 0 mm | - | - | - |
| 1777815743 | 18.33° C | 60% | 1009.3 hPa | 0 mm | - | - | - |
| 1777813943 | 17.78° C | 59% | 1009.7 hPa | 0 mm | - | - | - |
| 1777812144 | 17.78° C | 61% | 1009.7 hPa | 0 mm | - | - | - |
| 1777810343 | 17.78° C | 60% | 1009.5 hPa | 0 mm | - | - | - |
| 1777808543 | 16.67° C | 66% | 1009.8 hPa | 0 mm | - | - | - |
| 1777806743 | 16.11° C | 65% | 1009.9 hPa | 0 mm | - | - | - |
| 1777803143 | 15.56° C | 74% | 1010.1 hPa | 0 mm | - | - | - |
| 1777799544 | 13.89° C | 78% | 1010.3 hPa | 0 mm | - | - | - |
| 1777797745 | 13.33° C | 81% | 1010.2 hPa | 0 mm | - | - | - |
| 1777795944 | 13.33° C | 78% | 1010.1 hPa | 0 mm | - | - | - |
| 1777794145 | 12.78° C | 85% | 1010.1 hPa | 0 mm | - | - | - |
| 1777792344 | 12.22° C | 88% | 1010.1 hPa | 0 mm | - | - | - |
| 1777790544 | 12.22° C | 88% | 1009.9 hPa | 0 mm | - | - | - |
| 1777788744 | 12.22° C | 89% | 1009.8 hPa | 0 mm | - | - | - |
| 1777786943 | 11.67° C | 92% | 1009.7 hPa | 0 mm | - | - | - |
| 1777785143 | 11.11° C | 92% | 1009.6 hPa | 0 mm | - | - | - |
| 1777783344 | 11.11° C | 92% | 1009.4 hPa | 0 mm | - | - | - |
* Rain latest hour (hover to see other rain measurements)
** Current wind speed in m/s (hover to see current wind gust speed)